DW1006 Weather Reports


Display with metric or nautical units.
time (UTC)temp
F
wind
direction
speed
MPH
gust
MPH
rain 1hr
in
rain 24hr
in
rain mn
in
humidity
%
barometer
mb
20260506072613 49 321 3.0 8.0 0.02 0.28 0.27 100 1006.2
20260506072106 49 345 4.0 11.0 0.02 0.28 0.27 100 1006.2
20260506071607 49 11 4.0 12.0 0.02 0.28 0.26 100 1006.2
20260506070606 49 346 4.0 10.0 0.02 0.28 0.26 100 1006.2
20260506070110 49 12 3.0 10.0 0.02 0.28 0.26 100 1006.2
20260506062106 49 308 2.0 8.0 0.02 0.26 0.24 100 1005.9
20260506061104 49 40 3.0 8.0 0.02 0.26 0.24 100 1005.9
20260506060606 49 312 3.0 8.0 0.02 0.26 0.24 100 1005.8
20260506051102 49 5 2.0 8.0 0.03 0.24 0.23 100 1005.8
20260506050615 49 313 3.0 8.0 0.03 0.24 0.22 100 1005.9
20260506045103 49 0 1.0 5.0 0.04 0.24 0.22 100 1005.8
20260506044603 49 287 1.0 5.0 0.03 0.23 0.21 100 1005.7
20260506043059 49 340 2.0 5.0 0.02 0.22 0.20 100 1005.8
20260506042553 49 298 2.0 4.0 0.03 0.22 0.20 100 1005.8
20260506042047 49 305 2.0 6.0 0.02 0.21 0.20 100 1005.7
20260506041541 49 317 2.0 6.0 0.02 0.21 0.20 100 1005.8
20260506040023 49 322 2.0 8.0 0.02 0.20 0.19 100 1005.7
20260506035517 49 309 2.0 8.0 0.03 0.20 0.19 100 1005.8
20260506035011 49 306 3.0 8.0 0.02 0.20 0.18 100 1005.8
20260506034505 49 327 3.0 8.0 0.02 0.20 0.18 100 1005.8
20260506033454 49 321 2.0 4.0 0.03 0.20 0.18 100 1005.8
20260506032947 49 329 2.0 5.0 0.02 0.19 0.18 100 1005.9
20260506031935 49 5 1.0 5.0 0.03 0.19 0.17 100 1005.9
20260506031429 49 261 2.0 5.0 0.03 0.19 0.17 99 1005.9
20260506030417 49 288 2.0 7.0 0.03 0.18 0.17 99 1006.1
20260506025911 49 324 2.0 7.0 0.03 0.18 0.17 99 1006.1
20260506024352 49 331 2.0 5.0 0.04 0.17 0.16 99 1006.3
20260506023847 49 314 2.0 5.0 0.03 0.17 0.16 100 1006.2
20260506023340 49 304 2.0 8.0 0.04 0.17 0.15 100 1006.3
20260506022834 49 300 2.0 8.0 0.05 0.17 0.15 100 1006.2
20260506022329 49 355 2.0 8.0 0.05 0.17 0.15 100 1006.3
20260506021823 49 337 2.0 7.0 0.05 0.16 0.14 100 1006.3
20260506021317 49 340 2.0 9.0 0.05 0.16 0.14 99 1006.3
20260506020811 49 323 2.0 9.0 0.06 0.16 0.14 99 1006.3
20260506020304 49 284 2.0 5.0 0.06 0.15 0.13 99 1006.3
20260506015759 49 337 2.0 5.0 0.06 0.15 0.13 99 1006.3
20260506015253 49 281 2.0 9.0 0.06 0.14 0.13 99 1006.4
20260506014746 49 320 2.0 9.0 0.06 0.14 0.13 99 1006.4
20260506014241 49 338 1.0 4.0 0.06 0.13 0.12 99 1006.5
20260506013736 49 355 1.0 4.0 0.06 0.13 0.11 99 1006.5
20260506013229 49 350 2.0 5.0 0.06 0.13 0.11 100 1006.6
20260506012722 49 311 2.0 5.0 0.06 0.12 0.10 100 1006.6
20260506012217 49 298 1.0 5.0 0.06 0.12 0.10 100 1006.6
20260506011711 49 346 2.0 5.0 0.06 0.11 0.09 100 1006.6
20260506010658 50 355 1.0 8.0 0.05 0.10 0.09 99 1006.6
20260506005646 50 355 2.0 5.0 0.05 0.09 0.08 99 1006.7
20260506003622 50 297 2.0 4.0 0.02 0.07 0.06 99 1006.8
20260506003116 50 309 2.0 7.0 0.02 0.06 0.05 99 1006.9
20260506002609 50 17 2.0 7.0 0.02 0.06 0.05 99 1007.0
20260506002103 50 342 1.0 5.0 0.02 0.06 0.05 99 1007.0
20260506001558 50 5 1.0 4.0 0.02 0.06 0.04 99 1007.1
20260506001052 50 339 1.0 5.0 0.02 0.06 0.04 99 1007.0
20260506000048 50 315 2.0 6.0 0.02 0.05 0.03 99 1007.1
20260505235534 50 327 2.0 7.0 0.02 0.05 0.03 99 1007.2
20260505235028 50 9 2.0 7.0 0.02 0.05 0.03 99 1007.3
20260505234521 50 319 1.0 4.0 0.02 0.05 0.03 99 1007.2
20260505233510 50 343 3.0 10.0 0.02 0.05 0.03 99 1007.3
20260505233004 50 16 3.0 10.0 0.02 0.04 0.02 99 1007.4
20260505232458 50 0 3.0 8.0 0.02 0.04 0.02 99 1007.4
20260505231954 50 315 3.0 8.0 0.02 0.04 0.02 99 1007.5
20260505231454 50 343 2.0 6.0 0.02 0.04 0.02 99 1007.5
20260505230506 50 324 2.0 8.0 0.02 0.03 0.02 99 1007.5
20260505225454 50 314 3.0 10.0 0.02 0.03 0.02 99 1007.5
20260505224952 50 329 2.0 10.0 0.02 0.03 0.02 99 1007.5
20260505223950 50 355 2.0 6.0 0.01 0.02 0.01 99 1007.5
20260505223449 50 355 2.0 6.0 0.02 0.02 0.01 99 1007.5
20260505222950 50 300 1.0 5.0 0.02 0.02 0.01 99 1007.6
20260505221947 50 336 2.0 5.0 0.02 0.02 0.01 99 1007.6
20260505221447 50 323 2.0 5.0 0.01 0.02 0.00 99 1007.6
20260505220946 50 22 2.0 7.0 0.01 0.02 0.00 99 1007.7
20260505220449 50 332 2.0 7.0 0.01 0.02 0.00 99 1007.7
20260505215942 50 310 2.0 6.0 0.01 0.02 0.02 99 1007.7
20260505214932 50 298 1.0 5.0 0.01 0.02 0.02 99 1007.7
20260505213412 50 318 2.0 8.0 0.00 0.01 0.01 99 1007.9
20260505212906 50 346 2.0 9.0 0.00 0.01 0.01 99 1007.8
20260505211859 50 337 2.0 12.0 0.00 0.01 0.01 99 1008.0
20260505211359 50 5 2.0 12.0 0.00 0.01 0.01 99 1008.0
20260505210908 50 355 3.0 10.0 0.00 0.01 0.01 99 1008.0
20260505210359 50 0 2.0 10.0 0.00 0.01 0.01 99 1008.1
20260505205859 50 16 2.0 8.0 0.00 0.01 0.01 98 1008.1
20260505204905 50 26 3.0 8.0 0.00 0.01 0.01 98 1008.1
20260505204401 50 11 2.0 8.0 0.00 0.01 0.01 98 1008.1
20260505203357 51 355 2.0 7.0 0.00 0.01 0.01 98 1008.1
20260505202859 51 22 2.0 6.0 0.00 0.01 0.01 98 1008.1
20260505202357 51 329 2.0 5.0 0.00 0.01 0.01 98 1008.1
20260505201855 51 325 2.0 7.0 0.00 0.01 0.01 98 1008.0
20260505201354 51 315 2.0 8.0 0.00 0.01 0.01 98 1007.9
20260505200854 51 331 2.0 8.0 0.00 0.01 0.01 98 1007.9
20260505200356 51 315 2.0 8.0 0.00 0.01 0.01 98 1007.9
20260505195353 51 344 2.0 8.0 0.00 0.01 0.01 97 1008.0
20260505194852 51 5 2.0 8.0 0.00 0.01 0.01 98 1007.8
20260505194351 51 341 2.0 8.0 0.00 0.01 0.01 97 1007.8
20260505193852 51 348 1.0 8.0 0.00 0.01 0.01 98 1007.8
20260505192851 51 22 2.0 8.0 0.00 0.01 0.01 97 1007.8
20260505192352 51 14 3.0 10.0 0.00 0.01 0.01 97 1007.9
20260505191852 51 324 2.0 10.0 0.00 0.01 0.01 97 1007.8
20260505191348 51 5 2.0 7.0 0.00 0.01 0.01 97 1007.8
20260505190848 51 319 2.0 5.0 0.00 0.01 0.01 97 1007.8
20260505185847 51 295 1.0 5.0 0.00 0.01 0.01 97 1007.8
20260505184848 51 318 2.0 8.0 0.00 0.01 0.01 97 1007.7
20260505184348 51 9 2.0 7.0 0.00 0.01 0.01 97 1007.9
20260505183847 51 348 2.0 7.0 0.00 0.01 0.01 97 1007.9
20260505183348 51 30 2.0 7.0 0.00 0.01 0.01 97 1007.9
20260505182342 51 15 4.0 10.0 0.00 0.01 0.01 97 1007.9
20260505181841 51 333 3.0 9.0 0.00 0.01 0.01 97 1007.9
20260505181342 51 338 3.0 9.0 0.00 0.01 0.01 97 1008.0
20260505180840 51 355 2.0 9.0 0.00 0.01 0.01 97 1007.9
20260505180342 51 355 2.0 9.0 0.00 0.01 0.01 97 1007.9
20260505175843 51 321 2.0 8.0 0.00 0.01 0.01 96 1008.0
20260505175341 51 340 2.0 8.0 0.00 0.01 0.01 96 1008.0
20260505174842 51 306 2.0 7.0 0.00 0.01 0.01 96 1008.1
20260505174339 52 305 2.0 8.0 0.00 0.01 0.01 96 1008.2
20260505173836 52 11 2.0 8.0 0.00 0.01 0.01 96 1008.2
20260505173337 52 321 2.0 8.0 0.00 0.01 0.01 96 1008.2
20260505172836 52 351 2.0 8.0 0.00 0.01 0.01 96 1008.2
20260505171838 52 355 2.0 8.0 0.00 0.02 0.01 96 1008.1
20260505171337 52 5 2.0 8.0 0.00 0.02 0.01 96 1008.1
20260505170837 52 15 3.0 8.0 0.00 0.02 0.01 96 1008.0
20260505170350 52 5 3.0 9.0 0.00 0.02 0.01 96 1008.1
20260505165325 52 0 2.0 5.0 0.00 0.02 0.01 96 1008.2
20260505164819 52 327 2.0 7.0 0.00 0.02 0.01 96 1008.2
20260505164313 52 298 2.0 7.0 0.00 0.02 0.01 96 1008.1
20260505163806 52 321 2.0 6.0 0.00 0.02 0.01 96 1008.2
20260505162755 52 350 4.0 9.0 0.00 0.02 0.01 95 1008.1
20260505162248 52 341 4.0 12.0 0.00 0.02 0.01 96 1008.2
20260505161742 52 355 4.0 12.0 0.00 0.02 0.01 95 1008.1
20260505161237 52 296 3.0 11.0 0.00 0.02 0.01 95 1008.1
20260505160730 53 11 2.0 9.0 0.00 0.03 0.01 95 1008.1
20260505153152 53 325 0.0 0.0 0.00 0.06 0.01 96 1008.3
20260505152136 53 317 0.0 0.0 0.00 0.06 0.01 95 1008.4
20260505151630 53 17 0.0 0.0 0.00 0.06 0.01 95 1008.4
20260505151124 53 28 0.0 0.0 0.00 0.07 0.01 95 1008.5
20260505150112 53 316 0.0 0.0 0.00 0.08 0.01 95 1008.6
20260505140506 54 319 0.0 0.0 0.00 0.09 0.01 94 1008.7
20260505124330 54 322 0.0 0.0 0.00 0.08 0.00 94 1009.3
20260505123824 54 355 0.0 0.0 0.00 0.08 0.00 94 1009.2
20260505123319 54 10 0.0 0.0 0.00 0.08 0.00 94 1009.3
20260505122812 54 325 0.0 0.0 0.00 0.08 0.00 94 1009.2
20260505122306 54 313 0.0 0.0 0.00 0.08 0.00 95 1009.3
20260505121801 54 0 0.0 0.0 0.00 0.08 0.00 94 1009.3
20260505121302 54 5 0.0 0.0 0.00 0.08 0.00 95 1009.3
20260505120748 54 14 0.0 0.0 0.00 0.08 0.00 95 1009.4
20260505120242 54 339 0.0 0.0 0.00 0.08 0.00 95 1009.4
20260505115230 54 334 0.0 0.0 0.00 0.08 0.00 94 1009.5
20260505114727 54 5 0.0 0.0 0.00 0.08 0.00 94 1009.5
20260505114227 54 290 0.0 0.0 0.00 0.08 0.00 95 1009.5
20260505113727 54 317 0.0 0.0 0.00 0.08 0.00 95 1009.5
20260505113227 54 5 0.0 0.0 0.00 0.08 0.00 95 1009.5
20260505112727 54 334 0.0 0.0 0.00 0.08 0.00 95 1009.6
20260505112226 54 18 0.0 0.0 0.00 0.08 0.00 95 1009.6
20260505111726 54 331 0.0 0.0 0.00 0.08 0.00 95 1009.6
20260505111227 54 31 0.0 0.0 0.00 0.08 0.00 95 1009.6
20260505110225 55 310 0.0 0.0 0.00 0.08 0.00 95 1009.6
20260505101732 54 304 0.0 0.0 0.00 0.08 0.00 96 1009.6
20260505101227 54 316 0.0 0.0 0.00 0.08 0.00 96 1009.7
20260505100726 54 12 0.0 0.0 0.00 0.08 0.00 96 1009.7
20260505100227 55 323 0.0 0.0 0.00 0.08 0.00 96 1009.7
20260505095727 55 344 0.0 0.0 0.00 0.08 0.00 96 1009.7
20260505095227 55 315 0.0 0.0 0.00 0.08 0.00 97 1009.7
20260505094726 55 17 0.0 0.0 0.00 0.08 0.00 97 1009.7
20260505093728 55 26 0.0 0.0 0.00 0.08 0.00 97 1009.8
20260505092724 55 292 0.0 0.0 0.00 0.08 0.00 97 1009.8
20260505092223 55 304 0.0 0.0 0.00 0.08 0.00 97 1009.7
20260505091216 55 325 0.0 0.0 0.00 0.08 0.00 97 1009.7
20260505090710 55 24 0.0 0.0 0.00 0.08 0.00 97 1009.8
20260505090205 56 0 0.0 0.0 0.00 0.08 0.00 97 1009.7
20260505085658 56 0 0.0 0.0 0.00 0.08 0.00 97 1009.7
20260505084646 56 315 0.0 0.0 0.00 0.08 0.00 97 1009.7
20260505084140 56 333 0.0 0.0 0.00 0.08 0.00 98 1009.7
20260505083634 56 296 0.0 0.0 0.00 0.08 0.00 98 1009.6
20260505083129 56 319 0.0 0.0 0.00 0.08 0.00 98 1009.7
20260505082622 56 332 0.0 0.0 0.00 0.08 0.00 98 1009.7
20260505082116 56 315 0.0 0.0 0.00 0.08 0.00 98 1009.7
20260505081610 56 5 0.0 0.0 0.00 0.08 0.00 98 1009.7
20260505081105 56 336 0.0 0.0 0.00 0.08 0.00 98 1009.6
20260505080558 56 325 0.0 0.0 0.00 0.08 0.00 98 1009.7
20260505080100 56 310 0.0 0.0 0.00 0.08 0.00 98 1009.6